Starlink 31850

operational
NORAD ID: 59903 Int'l Des: 2024-100 Owner: SPXS Country: US Constellation: starlink
LEOCIRCULAR

Starlink 31850について

説明を読み込み中...

リアルタイム位置

3D地球を読み込み中...

次回通過

高度履歴

Altitude vs Time

uPlot chart will show altitude changes over time

軌道要素

1 59903U 24100U 25353.68018667 -.00000816 00000-0 -20147-4 0 9998
2 59903 43.0014 216.9650 0001037 283.1635 76.9101 15.27571433 88860
Epoch: Dec 19, 2025 • Age: 20 hours

現在のステータス

高度 495.2 km
速度 7.62 km/s
衛星直下点 -41.92°S, 136.13°W
打ち上げ日 May 28, 2024
運用期間 1.5 years
タイプ internet

技術仕様

分類 Payload
質量 730.00 kg
乾燥質量 700.00 kg
総質量 730.00 kg
長さ 0.30 m
直径 4.10 m
スパン 29.00 m
形状 Box + pan
製造者 SPXS
バスタイプ Starlink V2M
フェーズステータス In Orbit
所有者/国 SPXS/US

大規模コンステレーション

Loading constellations...